Change the Weather History Date:

Sunday, August 11, 2013

  Actual Average Record
Temperature  
Mean Temperature 79 °F 77 °F  
Max Temperature 84 °F 83 °F 88 °F (1960)
Min Temperature 74 °F 70 °F 65 °F (1962)
Degree Days  
Heating Degree Days 0 0  
Month to date heating degree days 0 0  
Since 1 June heating degree days 0 0  
Since 1 July heating degree days 0 0  
Cooling Degree Days 14 11  
Month to date cooling degree days 107 121  
Year to date cooling degree days 1962 1838  
Since 1 June cooling degree days 809 770  
Growing Degree Days 28 (Base 50)    
Moisture  
Dew Point 70 °F    
Average Humidity 76    
Maximum Humidity 93    
Minimum Humidity 58    
Precipitation  
Precipitation 0.12 in 0.33 in 3.60 in (1988)
Month to date precipitation 2.48 3.74  
Year to date precipitation 58.32 73.83  
Snow  
Snow 0.00 in - - ()
Month to date snowfall 0.0  
Since 1 June snowfall 0.0  
Since 1 July snowfall 0.0  
Snow Depth 0.00 in    
Sea Level Pressure  
Sea Level Pressure 30.03 in    
Wind  
Wind Speed 6 mph (ESE)    
Max Wind Speed 14 mph    
Max Gust Speed -    
Visibility 10 miles    
Events Rain    
T = Trace of Precipitation, MM = Missing Value Source: NWS Daily Summary

Daily Weather History Graph

Daily Weather History Graph

Search for Another Location

Airport or City:

Trip Planner

Search our weather history database for the weather conditions in past years. The results will help you decide how hot, cold, wet, or windy it might be!

Date:

Astronomy

Aug. 11, 2013 Rise Set
Actual Time 5:59 AM HST 6:50 PM HST
Civil Twilight 5:36 AM HST 7:13 PM HST
Nautical Twilight 5:09 AM HST 7:40 PM HST
Astronomical Twilight 4:41 AM HST 8:08 PM HST
Moon 10:10 AM HST (8/11) 10:04 PM HST (8/11)
Length of Visible Light 13h 37m
Length of Day
12h 51m
Waxing Crescent, 24% of the Moon is Illuminated
Aug 11
Waxing Crescent
Aug 14
First Quarter
Aug 20
Full
Aug 27
Last Quarter
Sep 5
New

Hourly Weather History & Observations

Time (HST) Temp. Heat Index Dew Point Humidity Pressure Visibility Wind Dir Wind Speed Gust Speed Precip Events Conditions
12:53 AM 75.0 °F - 72.0 °F 90% 30.04 in 6.0 mi South 3.5 mph - N/A Rain Light Rain
1:53 AM 73.9 °F - 72.0 °F 93% 30.03 in 10.0 mi WSW 3.5 mph - N/A   Overcast
2:53 AM 73.9 °F - 72.0 °F 93% 30.03 in 10.0 mi WSW 3.5 mph - N/A   Overcast
3:53 AM 73.9 °F - 72.0 °F 93% 30.02 in 10.0 mi Calm Calm - N/A   Overcast
4:53 AM 73.9 °F - 72.0 °F 93% 30.01 in 10.0 mi WSW 3.5 mph - N/A   Overcast
5:53 AM 73.9 °F - 72.0 °F 93% 30.02 in 10.0 mi SW 4.6 mph - N/A   Overcast
6:53 AM 73.9 °F - 71.1 °F 91% 30.04 in 10.0 mi WSW 3.5 mph - N/A   Mostly Cloudy
7:53 AM 75.0 °F - 71.1 °F 87% 30.04 in 10.0 mi WSW 3.5 mph - N/A   Mostly Cloudy
8:40 AM 79.0 °F - 71.1 °F 77% 30.06 in 10.0 mi Calm Calm - N/A   Mostly Cloudy
8:53 AM 81.0 °F 84.9 °F 71.1 °F 72% 30.06 in 10.0 mi East 5.8 mph - N/A   Mostly Cloudy
9:53 AM 81.0 °F 84.1 °F 69.1 °F 67% 30.06 in 10.0 mi East 12.7 mph - N/A   Mostly Cloudy
10:53 AM 82.9 °F 85.8 °F 68.0 °F 60% 30.06 in 10.0 mi ESE 8.1 mph - N/A   Mostly Cloudy
11:53 AM 82.0 °F 84.9 °F 68.0 °F 62% 30.04 in 10.0 mi East 9.2 mph - N/A   Mostly Cloudy
12:29 PM 82.9 °F 84.6 °F 64.9 °F 54% 30.04 in 10.0 mi East 11.5 mph - N/A   Mostly Cloudy
12:53 PM 82.9 °F 85.4 °F 66.9 °F 58% 30.03 in 10.0 mi East 13.8 mph - N/A   Mostly Cloudy
1:53 PM 82.9 °F 85.8 °F 68.0 °F 60% 30.02 in 10.0 mi ENE 9.2 mph - N/A   Mostly Cloudy
2:53 PM 84.0 °F 86.5 °F 66.9 °F 56% 30.01 in 10.0 mi ENE 8.1 mph - N/A   Scattered Clouds
3:53 PM 82.0 °F 85.5 °F 69.1 °F 65% 30.00 in 10.0 mi East 11.5 mph - N/A   Mostly Cloudy
4:53 PM 82.0 °F 85.5 °F 69.1 °F 65% 30.00 in 10.0 mi NE 10.4 mph - N/A   Mostly Cloudy
5:53 PM 81.0 °F 84.4 °F 70.0 °F 69% 30.01 in 10.0 mi East 9.2 mph - N/A   Mostly Cloudy
6:53 PM 79.0 °F - 70.0 °F 74% 30.03 in 10.0 mi NE 9.2 mph - N/A   Mostly Cloudy
7:53 PM 77.0 °F - 70.0 °F 79% 30.03 in 10.0 mi ENE 5.8 mph - N/A   Mostly Cloudy
8:53 PM 77.0 °F - 70.0 °F 79% 30.05 in 10.0 mi ENE 4.6 mph - N/A   Overcast
9:53 PM 77.0 °F - 70.0 °F 79% 30.06 in 10.0 mi Calm Calm - N/A   Mostly Cloudy
10:53 PM 77.0 °F - 70.0 °F 79% 30.07 in 10.0 mi Calm Calm - N/A   Mostly Cloudy
11:53 PM 73.9 °F - 69.1 °F 85% 30.06 in 10.0 mi WSW 3.5 mph - N/A   Overcast